Showing default

KUIPER-00451, 68945

Orbit data source: Space-Track

KUIPER-00451, 68945 is a payload satellite owned by Kuiper Systems (US) in LEO that was launched on Thu, 30 Apr 2026 UTC via an ARIANE 64 launch vehicle from the French Guiana (FRGUI). Payload-class satellites include a variety of spacecraft equipped with specific instruments for various scientific and technological missions. These include communications satellites like Starlink; space stations such as the ISS; scientific satellites like the Hubble; Earth observation satellites from companies like Planet Labs, Umbra, and HawkEye 360; GPS; miniature CubeSats for education and research; and military/defense satellites.

Loading next visibility...
Identifier
68945, 2026-098AC
Orbit
LEO
Country
Flag of USUS
Related business
Manufacturer
Kuiper Systems
Mission
Operational spacecraft
Bus & Motor
KUIPER, Unknown motor
Mass
~490 kg wet, ~490 kg dry
Launch date (UTC)
2026-04-30 (1 month ago)
Launch vehicle
ARIANE 64
Launch site
French Guiana (FRGUI)
Object type
Payload
Rocket body
Debris
Shape & HBR
Unknown
Radar Cross Section
Large (>1 m²)

Expand to show TLE details & history
Last TLE update: 7 hours ago

TLE from 7 hours ago
0 KUIPER-00451
1 68945U 26098AC  26150.83335647  .00049857  00000-0  17858-2 0  9994
2 68945  51.8752 152.0074 0013666  84.0902 243.4583 15.28180562  5301
Epoch: 2026-05-30T20:00Z
TLE epoch observation values (Epoch: 2026-05-30T20:00:01.999Z)
Latitude
-25.26435°
Longitude
-57.95745°
Altitude
492.679 km
Speed
7.616 km/s
True Right ascension
08h 41m 34s
True Declination
-25° 07' 36"
Sunlit
Object was in daylight at epoch
Visualization orbit readout
Latitude
Unknown
Longitude
Unknown
Altitude
Unknown
Speed
Unknown
Apparent Right ascension
Unknown
Apparent Declination
Unknown
Sunlit
N/A
Visualization observer readout
Local Sidereal Time
12:23:01
Azimuth
Unknown
Elevation
Unknown
Doppler factor
Unknown
Orbital elements
Apogee altitude
491.091 km
Perigee altitude
472.341 km
Semi-major axis
6,859.853 km
Eccentricity
0.00137
Inclination
51.8752°
RAAN
152.0074°
Arg. of periapsis
84.0902°
True anomaly
243.31831°
Mean anomaly
243.4583°
Eccentric anomaly
243.38829°
Mean motion
3.82007 °/min
Orbital period
94.24 mins
BSTAR
0.0017858
Loading maneuver chart data...
Computing Atmospheric mass density...
Loading historical data...
Loading historical data...
Loading historical data...
Loading historical data...
Loading historical data...
Loading historical data...
Loading historical data...

Documentation

Showing up to 5 results
|